Regional Weather Roundup
Issued by NWS

Home | Current Version | Previous Version | Text Only | Print | Product List | Glossary Off
Versions: 1 2 3 4 5 6 7 8 9 10 11 12 13 14 15 16 17 18 19 20 21 22 23 24 25 26 27 28 29 30 31 32 33 34 35 36 37 38 39 40 41 42 43 44 45 46 47 48 49 50

000
ASUS45 KTFX 021510
RWRMT
MONTANA REGIONAL WEATHER ROUNDUP
NATIONAL WEATHER SERVICE GREAT FALLS MT
900 AM MDT THU JUL 02 2015

NOTE: "FAIR" INDICATES FEW OR NO CLOUDS BELOW 12000 FEET WITH NO
SIGNIFICANT WEATHER AND/OR OBSTRUCTIONS TO VISIBILITY.

MTZ001>007-043-021600-
WEST OF THE DIVIDE

CITY           SKY/WX    TMP DP  RH WIND       PRES   REMARKS
KALISPELL      SUNNY     75  52  44 NE6       30.12S
MISSOULA       SUNNY     75  51  43 SE16      30.14S
BUTTE          SUNNY     63  50  62 CALM      30.28S
MULLAN PASS    SUNNY     64  46  52 SE7       30.26R
DEER LODGE       N/A     70  52  52 CALM      30.27F
EUREKA           N/A     75  54  46 CALM      30.13F
HAMILTON         N/A     68  46  45 S5        30.16S
RONAN            N/A     77  55  46 CALM      30.16S
$$

MTZ008-052>055-021600-
SOUTHWEST MONTANA

CITY           SKY/WX    TMP DP  RH WIND       PRES   REMARKS
BOZEMAN        SUNNY     68  52  56 N3        30.23R
DILLON         SUNNY     66  51  58 CALM      30.25R
W YELLOWSTONE  SUNNY     63  46  55 NE3       30.31S
THREE FORKS      N/A     70  70 100 NE1       30.19S
TWIN BRIDGES     N/A     70  50  49 N13       30.19S
$$

MTZ009-010-012-014-046-048-049-054-021600-
EAST SLOPES AND CENTRAL MONTANA

CITY           SKY/WX    TMP DP  RH WIND       PRES   REMARKS
CUT BANK       PTSUNNY   66  53  63 VRB5      30.22S
GREAT FALLS    MOSUNNY   69  52  54 VRB3      30.21S
MALMSTROM AFB  SUNNY     68  53  59 NW3       30.21S
HELENA         SUNNY     72  50  45 W5        30.20F
$$

MTZ011-013-016-021-045-047-050-051-021600-
NORTH CENTRAL MONTANA

CITY           SKY/WX    TMP DP  RH WIND       PRES   REMARKS
HAVRE          SUNNY     67  57  70 W6        30.17S
LEWISTOWN      SUNNY     68  53  58 NW6       30.23S
CHINOOK          N/A     66  57  72 SW8       30.17S
FORT BENTON      N/A     68  55  64 CALM      30.20F
$$

MTZ017>020-022>027-061-062-021600-
NORTHEAST MONTANA

CITY           SKY/WX    TMP DP  RH WIND       PRES   REMARKS
GLASGOW        SUNNY     69  58  67 NW12      30.09S HAZE
JORDAN           N/A     71  56  58 NW14      30.12R
SIDNEY         MOSUNNY   66  57  72 NW9       30.06R
WOLF POINT     SUNNY     68  62  81 W8        30.07S
MALTA            N/A     66  57  72 SW7       30.09S
PLENTYWOOD       N/A     70  63  78 NW8       30.06S
$$

MTZ028>42-056>058-021600-
SOUTHCENTRAL AND SOUTHEAST MONTANA

CITY           SKY/WX    TMP DP  RH WIND       PRES   REMARKS
BAKER          SUNNY     65  59  81 W12       30.10S
BILLINGS       MOSUNNY   72  54  53 NE7       30.20R
LIVINGSTON     SUNNY     68  52  56 VRB5      30.23S
MILES CITY     SUNNY     73  56  54 N15       30.11S
FORSYTH          N/A     72  59  64 N5        30.13S
LAUREL           N/A     72  54  53 NE1       30.16S
ROUNDUP          N/A     74  52  46 N12       30.08S
$$

REGIONAL REPORTS...DAKOTAS

CITY           SKY/WX    TMP DP  RH WIND       PRES   REMARKS
WILLISTON      PTSUNNY   66  58  75 CALM      30.05R
MINOT          MOSUNNY   68  63  84 NW7       29.98R HAZE
DICKINSON      SUNNY     67  58  72 NW12      30.04R
BEACH          FAIR      66  63  88 NW15      30.08S
CROSBY         FAIR      66  66 100 NW8       30.04S FOG
BISMARCK       CLOUDY    70  64  81 W5        30.00R
GRAND FORKS    SUNNY     68  59  73 S10       29.96R
FARGO          SUNNY     68  54  60 S12       29.99S
BUFFALO SD       N/A     70  60  70 NW13      30.03R
RAPID CITY     MOSUNNY   72  61  68 NW20      30.08R
$$

REGIONAL REPORTS...WYOMING/IDAHO/WASHINGTON

CITY           SKY/WX    TMP DP  RH WIND       PRES   REMARKS
GILLETTE       MOSUNNY   70  56  61 N9        30.18R
SHERIDAN       SUNNY     73  56  54 NW6       30.18S
BUFFALO WY     SUNNY     68  56  65 N10       30.23S
CODY           SUNNY     70  52  52 NE6       30.25R
YELLOWSTONE LA   N/A     62  46  55 E3        30.39S
IDAHO FALLS    SUNNY     70  54  56 N9        30.15R
SALMON         SUNNY     64  45  48 CALM      30.16S
BOISE          SUNNY     79  43  27 SE3       30.02R
SPOKANE        SUNNY     77  49  37 NE8       30.04R
$$

REGIONAL REPORTS...ALBERTA

CITY           SKY/WX    TMP DP  RH WIND       PRES   REMARKS
EDMONTON       MOSUNNY   70  55  60 SW2       30.09S
CALGARY        MOSUNNY   68  54  60 VRB2      30.19S
LETHBRIDGE     MOSUNNY   68  57  68 W6        30.19S
MEDICINE HAT   SUNNY     66  59  77 CALM      30.15S SMOKE
CARDSTON         N/A     66  59  77 NE1         N/A
MILK RIVER       N/A     70  55  60 NW6         N/A
ONEFOUR          N/A     64  57  77 NW10        N/A
$$

REGIONAL REPORTS...SASKATCHEWAN

CITY           SKY/WX    TMP DP  RH WIND       PRES   REMARKS
SWIFT CURRENT  CLOUDY    61  59  94 W9        30.12R FOG
REGINA         PTSUNNY   70  63  78 NW10      30.04S
CYPRESS HILLS    N/A     59  55  88 NW7         N/A
VAL MARIE        N/A     64  61  88 NW15        N/A
ASSINIBOIA       N/A     72  57  60 W5          N/A
$$


USA.gov is the U.S. government's official web portal to all federal, state and local government web resources and services.